Regional Weather Roundup
Issued by NWS

Home | Current Version | Previous Version | Graphics & Text | Print | Product List | Glossary On
Versions: 1 2 3 4 5 6 7 8 9 10 11 12 13 14 15 16 17 18 19 20 21 22 23 24 25 26 27 28 29 30 31 32 33 34 35 36 37 38 39 40 41 42 43 44 45 46 47 48 49 50
000
ASUS43 KDMX 201301
RWRIA

WEATHER ROUNDUP FOR IOWA
NATIONAL WEATHER SERVICE DES MOINES IA
800 AM CDT FRI OCT 20 2017

NOTE: "FAIR" INDICATES FEW OR NO CLOUDS BELOW 12,000 FEET WITH NO
SIGNIFICANT WEATHER AND/OR OBSTRUCTIONS TO VISIBILITY.

* - THESE STATIONS ARE NOT NWS STATIONS...THUS NOT UNDER NWS
QUALITY CONTROL.  THEY ALSO DO NOT REPORT WEATHER SUCH
AS PRECIPITATION OR FOG.

IAZ001>003-012>014-020>022-031>034-043>046-201400-
   NORTHWEST IOWA

CITY           SKY/WX    TMP DP  RH WIND       PRES   REMARKS
CARROLL *      PTCLDY    72  70  94 S12       29.97S
CHEROKEE *     CLOUDY    55  52  88 S13G18    29.91F
DENISON *      PTCLDY    55  52  88 S10G18    29.97S
LE MARS *      MOCLDY    57  52  82 S13       29.87S
ORANGE CITY *  CLOUDY    57  54  88 S12G17    29.87F
SHELDON *      CLEAR     54  48  82 SE9       29.86F
SIOUX CITY     PTCLDY    54  51  90 S12       29.88F
SPENCER        PTCLDY    54  49  83 S12       29.91S
STORM LAKE *   PTCLDY    54  50  87 S13       29.93F
$$

IAZ055>058-069>071-079>083-090>094-201400-
   SOUTHWEST IOWA

CITY           SKY/WX    TMP DP  RH WIND       PRES   REMARKS
ATLANTIC *     CLEAR     55  52  88 S9        29.99F
AUDUBON *      CLEAR     55  52  88 S8        29.99F
CLARINDA *     PTCLDY    48  48 100 CALM      30.04S FOG
COUNCIL BLFS * CLEAR     54  54 100 SE9       29.96F
CRESTON *      CLOUDY    54  50  87 S12       30.05S
HARLAN  *      PTCLDY    55  54  94 S9        30.00F
LAMONI         PTCLDY    53  50  89 S8        30.07S
RED OAK *      CLEAR     57  52  82 S9        30.00F
SHENANDOAH *   PTCLDY    57  54  88 S15       29.99F
$$

IAZ047>049-059>061-072>074-084-201400-
   CENTRAL IOWA

CITY           SKY/WX    TMP DP  RH WIND       PRES   REMARKS
AMES           PTCLDY    52  51  97 S7        30.02S
ANKENY *       PTCLDY    54  50  87 S7        30.05S
BOONE *        PTCLDY    55  52  88 S8        30.01S
CHARITON *     CLEAR     54  50  87 S8        30.06F
DES MOINES     CLOUDY    55  51  86 S9        30.03F
KNOXVILLE *    PTCLDY    55  50  82 S10       30.05S
MARSHALLTOWN   CLOUDY    53  50  89 SE7       30.04S
NEWTON *       MOCLDY    54  50  87 S8        30.06S
PELLA *        CLOUDY    55  50  85 S6        30.08S
PERRY *          N/A     51  50  97 SE5       30.01S
$$

IAZ004>006-015-016-023>025-035-036-201400-
   NORTH CENTRAL IOWA

CITY           SKY/WX    TMP DP  RH WIND       PRES   REMARKS
ALGONA *       PTCLDY    54  52  94 S13       29.95F
CLARION *      PTCLDY    54  54 100 S10       29.99S
ESTHERVILLE    CLOUDY    50  49  96 S13       29.92S
FORT DODGE *   CLOUDY    56  51  84 S13G18    29.98F
MASON CITY     CLEAR     50  48  93 S10       30.00S
FOREST CITY *    N/A     54  50  87 S10       29.98S
WEBSTER CITY * CLOUDY    54  52  94 S7        29.98S
IOWA FALLS *     N/A     53  50  91 S7        30.03S
$$

IAZ007>011-017>019-026>030-037>042-050>054-066-201400-
   NORTHEAST IOWA

CITY           SKY/WX    TMP DP  RH WIND       PRES   REMARKS
CEDAR RAPIDS   CLEAR     49  48  97 S5        30.08R
CHARLES CITY * CLEAR     52  52 100 S8        30.02S
CLINTON *      CLEAR     52  49  89 MISG      30.13S
DECORAH *      CLEAR     55  50  82 SW7       30.03R
DUBUQUE        CLEAR     51  48  89 S6        30.10R
MONTICELLO *   CLEAR     48  46  93 SE3       30.09R
OELWEIN *      CLEAR     50  50 100 S12       30.06S
WATERLOO       CLEAR     47  46  97 SE5       30.04R
$$

IAZ064-065-067-068-078-201400-
   EAST CENTRAL IOWA

CITY           SKY/WX    TMP DP  RH WIND       PRES   REMARKS
DAVENPORT      CLEAR     53  49  86 S8        30.14S
IOWA CITY      CLOUDY    48  46  93 CALM      30.12R
MUSCATINE *    FOG       45  45 100 CALM      30.13R VSB 1/4
QUAD CITIES    CLOUDY    57  48  72 CALM      30.12S
$$

IAZ062-063-075>077-085>089-095>099-201400-
   SOUTHEAST IOWA

CITY           SKY/WX    TMP DP  RH WIND       PRES   REMARKS
BURLINGTON     CLOUDY    53  50  89 S7        30.14R
FAIRFIELD *    CLOUDY    54  48  82 S7        30.11R
FORT MADISON * PTCLDY    57  52  82 S7        30.15R
KEOKUK *       PTCLDY    57  50  77 S9        30.14S
OSKALOOSA *      N/A     47  46  97 S8        30.09S
OTTUMWA        PTCLDY    52  49  89 S8        30.09R
WASHINGTON *   CLOUDY    54  50  87 S9        30.12R
$$

ABBREVIATIONS USED IN REMARKS
   TC - TEMPERATURES IN CELSIUS
  WCI - WIND CHILL INDEX
   HX - HEAT INDEX
  VSB - VISIBILITY
$$





USA.gov is the U.S. government's official web portal to all federal, state and local government web resources and services.